Location: *
(42.0175°N, 9.4056°E)
Time: 22:14:46
(UTC+00:00)

Terra - Pass Details

Date: 25 August 2019
Orbit: 701 x 703 km, 98.2° (Epoch: 20 September)

Event Time Altitude Azimuth Distance (km) Brightness Sun altitude
Exits shadow 22:32:08 16° 298° (WNW) 1,823 4.3 -36.0°
Drops below altitude 10° 22:33:36 10° 314° (NW) 2,177 4.9 -36.1°
Sets 22:36:28 0° 331° (NNW) 3,100 6.1 -36.2°
